Weather History for Mont-De-Marsan, France

Change the Weather History Date:

Friday, May 11, 2012

  Actual Average Record
Temperature  
Mean Temperature 74 °F -  
Max Temperature 88 °F 70 °F 88 °F (2012)
Min Temperature 60 °F 54 °F 41 °F (2013)
Cooling Degree Days 9    
Growing Degree Days 24 (Base 50)    
Moisture  
Dew Point 61 °F    
Average Humidity 69    
Maximum Humidity 94    
Minimum Humidity 40    
Precipitation  
Precipitation 0.00 in - - ()
Sea Level Pressure  
Sea Level Pressure 30.16 in    
Wind  
Wind Speed 5 mph ()    
Max Wind Speed 12 mph    
Max Gust Speed -    
Visibility 6.3 miles    
Events      
Averages and records for this station are not official NWS values.
T = Trace of Precipitation, MM = Missing Value Source: Averaged Metar Reports

Daily Weather History Graph

Daily Weather History Graph

Search for Another Location

Airport:

Trip Planner

Search our weather history database for the weather conditions in past years. The results will help you decide how hot, cold, wet, or windy it might be!

Date:

Astronomy

May. 11, 2012 Rise Set
Actual Time 6:40 AM CEST 9:17 PM CEST
Civil Twilight 6:07 AM CEST 9:50 PM CEST
Nautical Twilight 5:26 AM CEST 10:31 PM CEST
Astronomical Twilight 4:39 AM CEST 11:18 PM CEST
Moon 1:46 AM CEST (5/11) 11:57 AM CEST (5/11)
Length of Visible Light 15h 42m
Length of Day
14h 36m
Waning Gibbous, 66% of the Moon is Illuminated
May 11
Waning Gibbous
May 12
Last Quarter
May 21
New
May 28
First Quarter
Jun 4
Full

Hourly Weather History & Observations

Time (CEST) Temp. Heat Index Dew Point Humidity Pressure Visibility Wind Dir Wind Speed Gust Speed Precip Events Conditions
12:00 AM 69.8 °F - 60.8 °F 73% 30.09 in 6.2 mi ESE 6.9 mph - N/A   Unknown
12:30 AM 69.8 °F - 60.8 °F 73% 30.12 in 6.2 mi ESE 6.9 mph - N/A   Unknown
1:00 AM 68.0 °F - 60.8 °F 78% 30.12 in 6.2 mi ESE 8.1 mph - N/A   Unknown
1:30 AM 68.0 °F - 59.0 °F 73% 30.09 in 6.2 mi ESE 6.9 mph - N/A   Unknown
2:00 AM 67 °F - 59 °F 70% 30.11 in 25 mi ESE 8.1 mph - -   Clear
2:00 AM 66.2 °F - 59.0 °F 78% 30.09 in 6.2 mi ESE 8.1 mph - N/A   Unknown
2:30 AM 66.2 °F - 59.0 °F 78% 30.09 in 6.2 mi ESE 8.1 mph - N/A   Unknown
3:00 AM 64.4 °F - 59.0 °F 83% 30.09 in 6.2 mi ESE 6.9 mph - N/A   Unknown
3:30 AM 64.4 °F - 59.0 °F 83% 30.09 in 6.2 mi ESE 3.5 mph - N/A   Unknown
4:00 AM 62.6 °F - 57.2 °F 82% 30.12 in 6.2 mi East 3.5 mph - N/A   Unknown
4:30 AM 62.6 °F - 59.0 °F 88% 30.12 in 6.2 mi SE 2.3 mph - N/A   Unknown
5:00 AM 60.8 °F - 57.2 °F 88% 30.12 in 6.2 mi ESE 3.5 mph - N/A   Unknown
5:30 AM 60.8 °F - 59.0 °F 94% 30.12 in 6.2 mi SSE 2.3 mph - N/A   Unknown
6:00 AM 62.6 °F - 59.0 °F 88% 30.15 in 6.2 mi SSW 2.3 mph - N/A   Unknown
6:30 AM 62.6 °F - 59.0 °F 88% 30.15 in 6.2 mi WSW 3.5 mph - N/A   Unknown
7:00 AM 62.6 °F - 59.0 °F 88% 30.15 in 6.2 mi West 5.8 mph - N/A   Unknown
7:30 AM 60.8 °F - 57.2 °F 88% 30.15 in 6.2 mi WSW 4.6 mph - N/A   Unknown
8:00 AM 62 °F - 58 °F 82% 30.18 in 12 mi WSW 4.6 mph - -   Clear
8:00 AM 62.6 °F - 57.2 °F 82% 30.18 in 6.2 mi WSW 4.6 mph - N/A   Unknown
8:30 AM 62.6 °F - 59.0 °F 88% 30.18 in 6.2 mi WSW 6.9 mph - N/A   Unknown
9:00 AM 64.4 °F - 59.0 °F 83% 30.18 in 6.2 mi WSW 6.9 mph - N/A   Unknown
9:30 AM 64.4 °F - 59.0 °F 83% 30.18 in 6.2 mi WSW 6.9 mph - N/A   Partly Cloudy
10:00 AM 66.2 °F - 60.8 °F 83% 30.21 in 6.2 mi West 4.6 mph - N/A   Partly Cloudy
10:30 AM 68.0 °F - 60.8 °F 78% 30.21 in 6.2 mi SW 3.5 mph - N/A   Unknown
11:00 AM 69.8 °F - 60.8 °F 73% 30.21 in 6.2 mi Variable 3.5 mph - N/A   Unknown
11:30 AM 71.6 °F - 62.6 °F 73% 30.21 in 6.2 mi SW 3.5 mph - N/A   Unknown
12:00 PM 75.2 °F - 62.6 °F 65% 30.21 in 6.2 mi Variable 1.2 mph - N/A   Unknown
12:30 PM 77.0 °F - 62.6 °F 61% 30.21 in 6.2 mi West 3.5 mph - N/A   Unknown
1:00 PM 78.8 °F - 62.6 °F 57% 30.18 in 6.2 mi Variable 2.3 mph - N/A   Unknown
1:30 PM 80.6 °F 82.3 °F 64.4 °F 58% 30.18 in 6.2 mi Calm Calm - N/A   Unknown
2:00 PM 82 °F - 63 °F 43% 30.20 in 28 mi East 1.2 mph - -   Clear
2:00 PM 82.4 °F 83.4 °F 62.6 °F 51% 30.18 in 6.2 mi Variable 1.2 mph - N/A   Unknown
2:30 PM 82.4 °F 82.9 °F 60.8 °F 48% 30.18 in 6.2 mi NNW 8.1 mph - N/A   Unknown
3:00 PM 84.2 °F 85.0 °F 62.6 °F 48% 30.18 in 6.2 mi Variable 4.6 mph - N/A   Unknown
3:30 PM 86.0 °F 86.6 °F 62.6 °F 45% 30.18 in 6.2 mi North 3.5 mph - N/A   Unknown
4:00 PM 86.0 °F 87.3 °F 64.4 °F 48% 30.18 in 6.2 mi Variable 2.3 mph - N/A   Unknown
4:30 PM 87.8 °F 89.4 °F 64.4 °F 46% 30.18 in 6.2 mi WSW 5.8 mph - N/A   Unknown
5:00 PM 87.8 °F 87.6 °F 60.8 °F 40% 30.18 in 6.2 mi SSW 3.5 mph - N/A   Unknown
5:30 PM 87.8 °F 88.5 °F 62.6 °F 43% 30.18 in 6.2 mi WNW 3.5 mph - N/A   Unknown
6:00 PM 87.8 °F 90.4 °F 66.2 °F 49% 30.18 in 6.2 mi South 6.9 mph - N/A   Unknown
6:30 PM 84.2 °F 85.6 °F 64.4 °F 51% 30.15 in 6.2 mi SW 6.9 mph - N/A   Unknown
7:00 PM 82.4 °F 84.6 °F 66.2 °F 58% 30.15 in 6.2 mi West 8.1 mph - N/A   Unknown
7:30 PM 80.6 °F 82.7 °F 66.2 °F 61% 30.15 in 6.2 mi WSW 4.6 mph - N/A   Unknown
8:00 PM 81 °F - 66 °F 51% 30.17 in 31 mi WNW 10.4 mph - -   Clear
8:00 PM 80.6 °F 82.7 °F 66.2 °F 61% 30.18 in 6.2 mi WNW 10.4 mph - N/A   Unknown
8:30 PM 78.8 °F - 64.4 °F 61% 30.18 in 6.2 mi WNW 11.5 mph - N/A   Unknown
9:00 PM 75.2 °F - 64.4 °F 69% 30.18 in 6.2 mi WNW 4.6 mph - N/A   Unknown
9:30 PM 73.4 °F - 64.4 °F 73% 30.18 in 6.2 mi NW 4.6 mph - N/A   Unknown
10:00 PM 73.4 °F - 64.4 °F 73% 30.21 in 6.2 mi NW 8.1 mph - N/A   Unknown
10:30 PM 71.6 °F - 62.6 °F 73% 30.21 in 6.2 mi NNW 5.8 mph - N/A   Unknown
11:00 PM 71.6 °F - 62.6 °F 73% 30.21 in 6.2 mi NNE 4.6 mph - N/A   Unknown
11:30 PM 69.8 °F - 62.6 °F 78% 30.24 in 6.2 mi West 8.1 mph - N/A   Unknown